KC4LW Weather Reports


Display with metric or nautical units.
time (UTC)temp
F
wind
direction
speed
MPH
gust
MPH
rain 1hr
in
rain 24hr
in
rain mn
in
humidity
%
barometer
mb
20240524101547 70 0 0.0 1.0 0.00 0.00 0.00 94 1014.6
20240524100052 70 217 0.0 1.0 0.00 0.00 0.00 94 1014.3
20240524094548 70 0 0.0 1.0 0.00 0.00 0.00 93 1014.2
20240524093054 70 0 0.0 1.0 0.00 0.00 0.00 93 1014.3
20240524091556 71 0 0.0 0.0 0.00 0.00 0.00 93 1014.3
20240524090053 71 0 0.0 1.0 0.00 0.00 0.00 92 1014.5
20240524084551 71 0 0.0 0.0 0.00 0.00 0.00 92 1014.6
20240524083050 71 0 0.0 0.0 0.00 0.00 0.00 91 1014.9
20240524081558 72 0 0.0 1.0 0.00 0.00 0.00 91 1014.8
20240524080049 72 0 0.0 1.0 0.00 0.00 0.00 90 1014.7
20240524074548 72 0 0.0 1.0 0.00 0.00 0.00 90 1014.7
20240524073047 73 0 0.0 0.0 0.00 0.00 0.00 90 1014.9
20240524071552 73 0 0.0 1.0 0.00 0.00 0.00 89 1014.9
20240524070053 73 0 0.0 2.0 0.00 0.00 0.00 89 1015.1
20240524064604 73 217 0.0 2.0 0.00 0.00 0.00 89 1015.1
20240524063106 73 237 1.0 3.0 0.00 0.00 0.00 88 1015.3
20240524061555 73 227 1.0 5.0 0.00 0.00 0.00 89 1015.6
20240524060053 73 271 0.0 2.0 0.00 0.00 0.00 89 1015.4
20240524054557 74 0 0.0 1.0 0.00 0.00 0.00 88 1015.5
20240524053048 74 0 0.0 1.0 0.00 0.00 0.00 88 1015.4
20240524051556 74 0 0.0 1.0 0.00 0.00 0.00 88 1015.5
20240524050057 74 0 0.0 0.0 0.00 0.00 0.00 87 1015.4
20240524044550 74 0 0.0 1.0 0.00 0.00 0.00 87 1015.5
20240524043049 74 0 0.0 0.0 0.00 0.00 0.00 87 1015.5
20240524041555 75 0 0.0 1.0 0.00 0.00 0.00 86 1015.8
20240524040103 75 0 0.0 1.0 0.00 0.00 0.00 86 1015.6
20240524034550 75 0 0.0 2.0 0.00 0.00 0.00 85 1015.7
20240524033051 76 0 0.0 2.0 0.00 0.00 0.00 85 1015.8
20240524031602 76 75 0.0 1.0 0.00 0.00 0.00 84 1015.7
20240524030059 76 59 0.0 2.0 0.00 0.00 0.00 84 1015.8
20240524024607 76 92 0.0 3.0 0.00 0.00 0.00 84 1015.8
20240524023052 76 59 0.0 2.0 0.00 0.00 0.00 84 1015.8
20240524021557 76 66 0.0 3.0 0.00 0.00 0.00 84 1015.7
20240524020053 76 0 0.0 3.0 0.00 0.00 0.00 84 1015.7
20240524014554 76 88 0.0 2.0 0.00 0.00 0.00 84 1015.3
20240524013120 76 0 0.0 4.0 0.00 0.00 0.00 84 1015.4
20240524011554 77 96 0.0 2.0 0.00 0.00 0.00 84 1015.3
20240524010101 77 114 1.0 3.0 0.00 0.00 0.00 84 1015.2
20240524004603 77 110 1.0 4.0 0.00 0.00 0.00 83 1015.2
20240524003053 78 117 0.0 5.0 0.00 0.00 0.00 82 1015.2
20240524001551 78 76 0.0 5.0 0.00 0.00 0.00 81 1015.5
20240524000058 79 51 1.0 4.0 0.00 0.00 0.00 80 1015.5
20240523234557 79 101 1.0 6.0 0.00 0.00 0.00 79 1015.3
20240523233050 80 272 2.0 6.0 0.00 0.00 0.00 78 1015.3
20240523231551 79 77 1.0 7.0 0.00 0.00 0.00 78 1015.1
20240523230048 80 67 2.0 7.0 0.00 0.00 0.00 76 1015.1
20240523224548 81 66 2.0 8.0 0.00 0.00 0.00 73 1015.1
20240523223059 82 92 4.0 10.0 0.00 0.00 0.00 72 1015.2
20240523221555 81 98 2.0 10.0 0.00 0.00 0.00 72 1015.1
20240523220103 81 162 1.0 11.0 0.00 0.00 0.00 73 1015.5
20240523214544 81 99 1.0 8.0 0.00 0.00 0.00 71 1015.4
20240523213050 82 86 2.0 7.0 0.00 0.00 0.00 70 1015.5
20240523211555 82 96 3.0 9.0 0.00 0.00 0.00 72 1015.9
20240523210052 81 115 1.0 8.0 0.00 0.00 0.00 75 1015.7
20240523204550 81 78 3.0 9.0 0.00 0.00 0.00 73 1016.0
20240523203109 81 91 3.0 8.0 0.00 0.00 0.00 74 1015.9
20240523201557 81 0 3.0 10.0 0.00 0.00 0.00 71 1015.9
20240523200052 82 52 2.0 9.0 0.00 0.00 0.00 71 1015.9
20240523194604 83 84 2.0 8.0 0.00 0.00 0.00 72 1015.7
20240523193052 82 49 1.0 11.0 0.00 0.00 0.00 72 1015.8
20240523191555 82 80 3.0 11.0 0.00 0.00 0.00 71 1015.9
20240523190155 84 64 3.0 9.0 0.00 0.00 0.00 67 1016.2
20240523184557 85 64 1.0 10.0 0.00 0.00 0.00 65 1015.9
20240523183053 86 45 3.0 11.0 0.00 0.00 0.00 63 1016.2
20240523181558 86 76 5.0 13.0 0.00 0.00 0.00 60 1016.2
20240523180058 86 82 2.0 8.0 0.00 0.00 0.00 62 1016.2
20240523174638 85 103 2.0 10.0 0.00 0.00 0.00 65 1016.2
20240523173055 86 140 2.0 8.0 0.00 0.00 0.00 67 1016.3
20240523171553 86 49 2.0 6.0 0.00 0.00 0.00 69 1016.4
20240523170050 84 111 2.0 8.0 0.00 0.00 0.00 71 1016.4
20240523164559 84 68 2.0 9.0 0.00 0.00 0.00 71 1016.5
20240523163054 84 96 1.0 9.0 0.00 0.00 0.00 72 1016.8
20240523161552 85 66 4.0 9.0 0.00 0.00 0.00 69 1016.8
20240523160100 86 81 2.0 8.0 0.00 0.00 0.00 69 1016.8
20240523154600 85 83 2.0 8.0 0.00 0.00 0.00 68 1017.0
20240523153054 86 59 2.0 8.0 0.00 0.00 0.00 64 1017.1
20240523151621 86 133 1.0 9.0 0.00 0.00 0.00 62 1017.3
20240523150055 86 101 1.0 4.0 0.00 0.00 0.00 62 1017.1
20240523144608 85 306 2.0 4.0 0.00 0.00 0.00 62 1017.1
20240523143051 84 0 1.0 6.0 0.00 0.00 0.00 65 1017.1
20240523141600 83 193 2.0 6.0 0.00 0.00 0.00 66 1017.3
20240523140052 82 0 1.0 5.0 0.00 0.00 0.00 71 1017.6
20240523134559 81 215 2.0 7.0 0.00 0.00 0.00 73 1017.7
20240523133052 80 225 1.0 8.0 0.00 0.00 0.00 74 1017.7
20240523131547 79 244 2.0 5.0 0.00 0.00 0.00 77 1017.8
20240523130052 78 200 2.0 7.0 0.00 0.00 0.00 80 1017.9
20240523124549 76 0 1.0 6.0 0.00 0.00 0.00 86 1017.4
20240523123048 74 63 1.0 4.0 0.00 0.00 0.00 91 1017.6
20240523121553 72 0 1.0 3.0 0.00 0.00 0.00 95 1017.4
20240523120051 71 200 0.0 3.0 0.00 0.00 0.00 97 1017.2
20240523114547 70 0 0.0 3.0 0.00 0.00 0.00 97 1016.9
20240523113049 70 0 0.0 1.0 0.00 0.00 0.00 97 1017.2
20240523111553 69 0 0.0 1.0 0.00 0.00 0.00 97 1017.0
20240523110048 69 0 0.0 1.0 0.00 0.00 0.00 97 1016.8
20240523104553 68 0 0.0 0.0 0.00 0.00 0.00 96 1016.5
20240523103056 69 0 0.0 0.0 0.00 0.00 0.00 96 1016.4